TimeCDT,TemperatureF,Dew PointF,Humidity,Sea Level PressureIn,VisibilityMPH,Wind Direction,Wind SpeedMPH,Gust SpeedMPH,PrecipitationIn,Events,Conditions,WindDirDegrees,DateUTC
1:35 AM,69.8,59.0,68,29.94,10.0,SSE,4.6,-,N/A,,Clear,160,2013-05-09 06:35:00
2:15 AM,69.8,60.8,73,29.93,10.0,SSE,5.8,-,N/A,,Clear,160,2013-05-09 07:15:00
2:55 AM,69.8,60.8,73,29.93,10.0,SSE,6.9,-,N/A,,Clear,150,2013-05-09 07:55:00
4:15 AM,69.8,62.6,78,29.93,10.0,SSE,10.4,-,N/A,,Clear,160,2013-05-09 09:15:00
5:15 AM,69.8,62.6,78,29.93,10.0,South,6.9,17.3,N/A,,Clear,180,2013-05-09 10:15:00
5:35 AM,69.8,62.6,78,29.94,10.0,South,10.4,-,N/A,,Clear,180,2013-05-09 10:35:00
6:35 AM,68.0,62.6,83,29.95,10.0,SSE,5.8,-,N/A,,Mostly Cloudy,160,2013-05-09 11:35:00
9:15 AM,68.0,64.4,88,29.97,7.0,South,8.1,-,N/A,,Scattered Clouds,170,2013-05-09 14:15:00
10:35 AM,71.6,64.4,78,30.01,7.0,South,8.1,-,N/A,,Clear,190,2013-05-09 15:35:00
12:15 PM,78.8,60.8,54,29.99,10.0,WSW,8.1,16.1,N/A,,Clear,240,2013-05-09 17:15:00
12:35 PM,80.6,59.0,48,29.98,10.0,South,5.8,-,N/A,,Clear,190,2013-05-09 17:35:00
1:15 PM,86.0,50.0,29,29.95,10.0,WSW,6.9,-,N/A,,Clear,240,2013-05-09 18:15:00
1:35 PM,86.0,42.8,22,29.94,10.0,WSW,6.9,-,N/A,,Clear,250,2013-05-09 18:35:00
2:35 PM,89.6,35.6,15,29.92,10.0,West,11.5,18.4,N/A,,Clear,260,2013-05-09 19:35:00
3:35 PM,89.6,37.4,16,29.88,10.0,SSW,10.4,18.4,N/A,,Clear,200,2013-05-09 20:35:00
3:55 PM,87.8,37.4,17,29.87,10.0,SW,8.1,-,N/A,,Clear,230,2013-05-09 20:55:00
4:55 PM,89.6,37.4,16,29.84,10.0,SSE,8.1,-,N/A,,Clear,150,2013-05-09 21:55:00
5:15 PM,87.8,39.2,18,29.85,10.0,SW,10.4,-,N/A,,Clear,220,2013-05-09 22:15:00
5:55 PM,84.2,44.6,25,29.87,10.0,WSW,5.8,10.4,N/A,Thunderstorm,Clear,250,2013-05-09 22:55:00
6:35 PM,77.0,53.6,44,29.86,-9999.0,SE,6.9,-,N/A,,Unknown,130,2013-05-09 23:35:00
6:55 PM,77.0,53.6,44,29.85,10.0,SE,5.8,-,N/A,,Clear,140,2013-05-09 23:55:00
7:35 PM,77.0,55.4,47,29.85,10.0,Calm,Calm,-,N/A,Thunderstorm,Thunderstorm,0,2013-05-10 00:35:00
7:55 PM,77.0,55.4,47,29.85,10.0,Calm,Calm,-,N/A,Thunderstorm,Thunderstorm,0,2013-05-10 00:55:00
8:15 PM,78.8,50.0,36,29.85,10.0,NE,9.2,21.9,N/A,,Clear,40,2013-05-10 01:15:00
8:35 PM,73.4,57.2,57,29.88,10.0,NE,17.3,23.0,N/A,,Scattered Clouds,40,2013-05-10 01:35:00
8:55 PM,71.6,57.2,60,29.89,10.0,ENE,11.5,-,N/A,,Scattered Clouds,70,2013-05-10 01:55:00
9:15 PM,69.8,59.0,68,29.92,10.0,NNE,6.9,-,N/A,,Clear,30,2013-05-10 02:15:00
10:55 PM,66.2,59.0,78,29.95,10.0,Calm,Calm,-,N/A,,Clear,0,2013-05-10 03:55:00
11:35 PM,64.4,57.2,77,29.96,10.0,Calm,Calm,-,N/A,,Clear,0,2013-05-10 04:35:00